sat.trackr.live / text

‹ back to catalog

STARLINK-11485 [DTC]

NORAD 62229 · 2024-231M

PAYLOAD ACTIVE UNKNOWN

§ Identity

Operator
Country
US
Launch date
2024-12-05
Launch site
AFWTR
Launch vehicle
Mass (kg)
RCS (m²)

Purposes: comms

External: N2YO · Heavens-Above · Gunter

§ Orbital elements

Epoch: 2026-05-25T02:20:42.563040Z

Period
91.74 min
Inclination
53.1581°
Eccentricity
0.0001118
Mean motion
15.69722867 rev/d
Perigee alt
358.9 km
Apogee alt
360.4 km
Semi-major
6,737.8 km
B*
1.3663e-3
RAAN
84.4970°
Arg perigee
66.4395°
Mean anomaly
293.6740°
Rev number
8,541

§ Raw data

STARLINK-11485 [DTC]1 62229U 24231M   26145.09771485  .00168426  00000+0  13663-2 0  99992 62229  53.1581  84.4970 0001118  66.4395 293.6740 15.69722867 85414

JSON: /api/v1/satellites/62229 · /tle

For live sub-satellite position, see the globe view (requires WebGL).

§ Visibility from observer

Set your observer location to see the next 7 days of passes ≥ 10°. The values pass through the URL so the page stays shareable.

No JS? Fill the form by hand. The geolocation button needs JavaScript.